Location: SAPM � Hemmingford
(45.0500°N, 73.5833°W)
Time: 12:56:53
(UTC-05:00)

Daily predictions for brighter satellites

Satellite Brightness Start Highest point End
(mag) Time Altitude Azimuth Time Altitude Azimuth Time Altitude Azimuth
Cosmos 1295 Rocket 4.5 16:37:25 10° N 16:43:33 67° E 16:49:35 10° SSE
Cosmos 1484 Rocket 4.3 16:44:48 10° E 16:46:52 14° ENE 16:48:56 10° NNE
Cosmos 372 Rocket 4.0 16:42:09 10° SSW 16:47:24 86° ESE 16:52:42 10° NNE
ISS -3.3 16:45:34 10° WSW 16:48:52 85° NNW 16:52:11 10° ENE
Cosmos 2263 Rocket 3.6 16:45:12 10° WSW 16:50:15 33° NW 16:55:22 10° N
Okean 3 3.7 16:46:36 10° SSW 16:50:53 76° W 16:55:10 10° N
CZ-3A R/B 3.2 16:47:57 10° SW 16:52:08 86° NW 17:13:56 10° ENE
ASTEX 1 4.4 16:49:07 10° N 16:53:59 52° WNW 16:58:49 10° SSW
Abrixas 3.0 16:51:54 10° WNW 16:54:46 42° N 16:57:35 10° E
SPOT 3 Rocket 3.7 16:50:30 10° SE 16:55:32 54° ENE 17:00:35 10° N
EO 1 Del DPAF 4.5 16:53:10 10° N 16:56:53 44° WNW 17:00:34 10° SW
ATLAS 2AS CENTAUR R/B 3.1 16:53:17 10° NW 17:01:28 86° NE 17:09:07 10° SE
Ariane Rocket 4.4 16:57:23 10° S 17:02:10 42° W 17:06:59 10° NNW
Cosmos 2341 Rocket 4.4 16:56:58 10° NNW 17:03:07 68° W 17:09:17 10° S
SMAP 3.1 16:58:59 10° SSE 17:03:33 59° ENE 17:08:08 10° N
COSMOS 2487 3.7 17:01:47 10° N 17:04:38 21° ENE 17:07:29 10° ESE
Cosmos 494 Rocket 4.0 17:00:39 10° NNW 17:05:52 64° ENE 17:11:05 10° SSE
USA 32 4.0 17:01:04 10° S 17:06:12 63° E 17:11:22 10° NNE
BREEZE-M DEB (TANK) 1.4 17:10:10 10° WSW 17:12:25 75° NNW 17:13:59 18° ENE
Cosmos 1844 Rocket 2.8 17:09:18 10° SSW 17:14:53 83° WNW 17:20:35 10° NNE
Cosmos 1544 Rocket 3.5 17:11:09 10° N 17:15:39 83° E 17:20:07 10° S
Cosmos 1238 Rocket 2.2 17:13:32 10° S 17:16:24 51° E 17:19:26 10° NNE
IDEFIX/ARIANE 42P 2.5 17:12:57 10° SSE 17:18:08 81° ENE 17:23:21 10° NNW
COSMO-SKYMED 1 3.6 17:15:07 11° NE 17:18:29 25° E 17:22:04 10° SSE
SL-8 R/B 4.1 17:14:33 10° SW 17:19:09 50° SSE 17:22:40 17° ENE
Cosmos 1812 2.8 17:15:56 10° S 17:19:42 56° E 17:23:30 10° NNE
USA 116 4.5 17:15:17 10° NNE 17:20:43 79° ESE 17:25:56 10° S
Cosmos 1975 Rocket 3.9 17:17:26 10° SSW 17:21:38 51° WNW 17:25:53 10° N
CRYOSAT 2 4.4 17:17:32 10° N 17:22:28 88° W 17:27:22 10° S
CZ-2C R/B 2.5 17:17:41 10° SSE 17:22:41 90° NW 17:27:51 10° NNW
Okean 1 3.6 17:19:45 10° SSE 17:23:37 45° E 17:27:31 10° NNE
Meteor 1-18 Rocket 4.2 17:18:11 10° S 17:23:45 66° E 17:29:29 10° NNE
Cosmos 375 4.4 17:21:53 10° NW 17:26:34 72° NE 17:30:26 10° SE
Cosmos 864 Rocket 4.5 17:21:01 10° N 17:27:20 80° E 17:33:39 10° S
MONITOR-E 4.5 17:24:47 10° SSE 17:27:51 45° ENE 17:30:57 10° N
SJ-7 4.5 17:24:12 10° SSE 17:28:26 89° WSW 17:32:43 10° NNW
CORIOLIS 4.2 17:23:18 10° SSE 17:28:43 89° ENE 17:34:09 10° NNW
Thor Agena Rocket 3.5 17:24:18 10° NNE 17:29:32 85° ESE 17:34:48 10° SSW
Nadezhda 3 Rocket 4.4 17:25:14 10° SSE 17:30:55 40° E 17:36:41 10° NNE
COSMOS 2441 4.4 17:27:24 10° SSE 17:32:12 62° ENE 17:37:03 10° N
Cosmos 1844 3.8 17:29:21 10° SSW 17:34:54 77° WNW 17:40:30 10° NNE
Cosmos 1346 Rocket 3.1 17:33:25 10° SSE 17:37:05 40° E 17:39:19 20° NE
Cosmos 2297 4.3 17:32:46 10° S 17:37:49 35° ESE 17:40:47 21° NE
Cosmos 1536 Rocket 3.5 17:33:45 10° S 17:38:12 76° E 17:42:41 10° NNE
Cosmos 2251 Rocket 4.2 17:33:46 10° NNW 17:39:04 60° WSW 17:44:15 10° S
CZ-4 R/B 4.5 17:36:00 10° SSE 17:40:08 84° WSW 17:44:20 10° NNW
YAOGAN 1 3.3 17:42:07 10° S 17:46:22 55° W 17:50:38 10° NNW
Cosmos 921 Rocket 3.7 17:46:25 10° SSE 17:50:13 32° E 17:50:39 31° E
Cosmos 2278 Rocket 2.1 17:45:07 10° SSW 17:50:46 88° ESE 17:55:36 15° NNE
Tiangong 1 2.6 17:50:03 10° SSW 17:52:29 22° SSE 17:52:44 22° SSE
NOAA 12 4.2 17:56:23 10° SE 18:01:28 50° ENE 18:06:32 10° N
MSX 4.2 17:56:15 10° S 18:01:57 66° WSW 18:07:42 10° NNW
CZ-4 R/B 3.9 18:01:08 10° SSW 18:04:33 24° W 18:07:56 10° NW
FALCON 9 R/B 4.2 17:41:08 10° WSW 18:05:39 47° S 18:10:58 20° ESE
Genesis I 3.7 18:02:13 10° NW 18:06:06 60° WSW 18:09:57 10° SSE
SKYMED 2 3.4 18:03:45 20° NNE 18:06:46 80° ESE 18:11:06 10° S
Cosmos 1975 3.8 18:03:32 10° NNW 18:07:30 49° W 18:11:24 10° S
Meteor 1-19 Rocket 4.3 18:02:48 10° S 18:08:27 56° E 18:12:41 18° NNE
NOSS 2-1 (E) 4.4 18:05:47 10° S 18:08:29 29° SE 18:08:29 29° SE
METEOR-M 4.1 18:08:03 10° SSE 18:13:14 54° ENE 18:18:28 10° N
Cosmos 1833 Rocket 2.6 18:08:09 10° NNW 18:13:49 71° ENE 18:19:25 10° SSE
Cosmos 2082 Rocket 2.1 18:08:39 10° NNW 18:14:21 83° ENE 18:20:03 10° SSE
Okean 1-7 Rocket 3.5 18:11:26 10° S 18:15:55 70° E 18:17:21 42° NNE
Cosmos 1743 2.6 18:14:11 10° N 18:18:06 85° E 18:21:58 10° S
Cosmos 1484 Rocket 3.7 18:17:22 10° S 18:20:59 46° W 18:24:35 10° NNW
USA 234 3.7 18:19:23 27° NE 18:22:56 55° NNW 18:29:17 10° WSW
Cosmos 1934 Rocket 3.9 18:17:01 10° N 18:23:08 59° ENE 18:29:19 10° SSE
SL-24 R/B - RUBIN 2 4.4 18:18:03 10° SSW 18:24:26 85° ESE 18:27:32 35° NE
Cosmos 1535 Rocket 4.4 18:18:15 10° N 18:24:36 76° E 18:30:50 10° SSE
ISS -1.5 18:22:46 10° WNW 18:25:01 26° NNW 18:25:01 26° NNW
Meteor 1-13 Rocket 4.2 18:21:20 10° S 18:27:01 86° W 18:32:33 12° N
Cosmos 2056 Rocket 4.5 18:23:16 10° S 18:26:34 31° SE 18:26:34 31° SE
Meteor 1-28 Rocket 3.7 18:30:41 53° S 18:30:41 53° S 18:33:39 10° SSW
Abrixas 4.4 18:27:32 10° WNW 18:29:12 29° W 18:29:12 29° W
GEOS 3 Rocket 3.7 18:30:08 21° SSE 18:33:39 73° SW 18:38:47 10° NW
BREEZE-M DEB (TANK) 4.1 18:28:48 10° WNW 18:33:52 43° NNW 18:33:52 43° NNW
BREEZE M DEB (TANK) 3.3 18:30:58 10° WNW 18:34:43 82° NNE 18:37:40 40° ESE
Meteor 1-23 Rocket 4.2 18:30:51 10° S 18:36:19 60° ESE 18:36:19 60° ESE
NOSS 3-4 (A) 3.7 18:30:22 10° NW 18:37:18 68° NE 18:39:38 45° ESE
NOSS 3-4 (C) 3.7 18:30:28 10° NW 18:37:25 68° NE 18:39:40 46° ESE
Cosmos 2239 Rocket 4.5 18:33:52 10° N 18:40:07 82° W 18:46:15 10° S
CZ-3B DEB 3.2 18:38:43 10° W 18:43:32 59° NNW 18:47:51 34° NE
Cosmos 1371 Rocket 4.0 18:41:08 10° SSW 18:45:59 68° SSE 18:45:59 68° SSE
Meteor 2-8 Rocket 4.3 18:41:51 10° S 18:47:52 71° E 18:48:17 68° ENE
Meteor 2-4 Rocket 3.4 18:43:14 10° S 18:48:38 86° E 18:48:44 85° ENE
ATLAS 3B CENTAUR R/B 4.5 18:34:40 10° WSW 18:49:03 30° SSW 18:53:40 18° SSE
Cosmos 1821 Rocket 4.1 18:44:12 10° NNW 18:50:16 72° W 18:56:19 10° S
Meteor 2-9 Rocket 4.0 18:45:39 10° NNW 18:51:10 86° WSW 18:56:30 10° S
COSMO-SKYMED 1 4.2 18:52:19 19° NNW 18:54:40 33° WNW 18:58:33 10° SW
Timation 1 Rocket 4.4 18:52:52 10° SW 18:58:48 72° WNW 18:59:56 57° N
Cosmos 1605 Rocket 3.9 18:54:25 10° N 19:08:52 - S 19:00:08 71° NNE
SL-8 R/B 4.4 18:56:54 10° W 19:00:39 51° WNW 19:00:39 51° WNW
BREEZE-M DEB (TANK) 4.3 18:45:41 10° W 19:02:57 49° N 19:03:54 46° NNE
Cosmos 2278 Rocket 4.4 19:31:46 10° W 19:35:39 19° NW 19:37:29 16° NNW
